Temp
9 9 9 9 9 9 9 9 9 9 9 9 9 9 9 9 9 9 9 9 9 9 9 9 8 8 8 9 9 8 8 8 8 8 8 8 8 9 9 9 9 10 10
10 9 9 9 9 9 9 9 9 9 9 9 9 9 9 9 9 9 9 9 9 9 9 9 8 8 9 9 9 8 9 8 8 8 8 8 8 9 9 9 9 10 9
9 9 9 9 9 9 9 9 9 9 9 9 9 9 9 9 9 9 9 9 9 9 9 9 8 8 8 9 9 9 9 8 8 7 8 9 8 9 9 9 9 9 9
9 9 9 9 9 9 9 9 9 8 8 9 9 9 9 9 9 9 9 9 9 9 9 8 8 8 8 8 8 9 8 8 7 8 8 8 8 8 9 9 9 9 9
9 9 9 9 9 9 9 9 9 8 9 9 9 9 9 9 9 9 9 9 9 9 9 9 8 8 8 8 8 8 8 8 8 8 8 8 8 8 8 9 9 9 9
9 9 9 9 9 9 9 9 9 8 8 9 9 9 9 9 9 9 9 9 9 9 9 9 9 9 9 8 8 8 8 8 8 7 8 8 8 8 8 9 9 9 9
10 9 9 9 9 9 9 9 8 8 8 8 9 9 9 9 9 9 9 9 9 9 9 9 9 9 8 8 8 9 8 9 7 8 8 8 8 8 8 9 9 9 8
10 9 9 9 9 9 9 9 8 8 8 9 9 9 9 9 9 9 9 9 9 9 9 8 8 9 8 8 8 8 8 8 8 8 8 8 8 8 9 9 9 8 8
9 9 9 9 9 9 9 8 8 8 9 9 9 9 9 8 9 9 9 9 9 9 8 8 8 8 8 8 7 7 8 8 9 8 8 8 8 9 9 9 9 9 9
9 9 9 9 9 9 9 8 8 8 9 9 8 8 8 9 8 8 9 9 8 8 8 8 8 7 7 7 8 8 8 8 9 8 8 8 8 9 9 8 9 9 9
8 9 9 9 9 9 9 8 8 8 9 8 8 8 9 9 8 8 8 9 8 8 9 8 8 8 6 6 6 7 8 8 7 7 8 8 8 9 9 9 9 9 9
8 9 9 10 9 9 9 9 9 9 9 8 9 8 9 9 8 8 8 8 8 9 8 8 8 8 8 6 6 6 7 8 8 7 8 8 9 9 9 9 9 9 8
8 9 10 10 10 9 9 9 9 9 9 9 9 7 8 8 8 7 9 8 8 8 8 8 8 8 8 6 7 6 6 7 7 7 7 8 9 9 9 9 9 9 8
7 7 8 10 10 9 9 9 9 9 9 8 8 8 8 7 9 8 9 10 8 9 8 8 9 8 7 6 6 6 6 7 6 6 7 7 8 9 9 9 8 8 8
8 8 7 10 10 10 9 8 9 7 7 7 8 9 8 9 10 8 9 8 8 8 8 10 9 8 8 7 7 6 6 6 6 7 7 8 7 8 8 8 8 8 8
8 8 8 11 10 10 10 9 8 8 7 8 8 9 9 8 8 8 8 8 8 8 8 9 8 8 8 8 7 6 6 6 6 6 6 7 7 7 7 7 8 8 8
8 8 8 11 10 10 10 10 10 9 9 8 8 9 8 9 9 9 9 9 9 10 9 9 8 8 8 7 7 6 6 6 7 7 6 7 6 7 7 7 7 8 8
9 8 10 11 11 11 11 10 10 10 10 10 9 10 9 9 9 9 9 10 9 8 9 8 9 8 7 6 6 6 6 6 7 7 7 7 7 6 8 7 7 7 7
9 9 11 11 12 11 11 11 10 10 10 10 10 10 10 10 10 10 9 9 9 9 11 9 9 8 7 6 7 6 6 6 6 5 6 6 7 7 7 8 8 8 8
9 11 11 11 12 11 11 11 11 11 10 10 10 10 10 10 10 10 10 10 10 9 9 8 8 8 8 6 7 6 5 6 6 6 6 7 7 7 7 8 9 8 7
10 12 12 12 12 12 11 11 11 11 11 11 10 10 11 11 11 10 11 9 10 10 9 9 8 8 8 8 7 7 7 7 6 6 6 6 6 6 6 8 9 9 9
13 13 13 12 12 12 12 12 11 11 11 11 10 11 11 11 11 11 10 10 10 9 9 9 9 9 9 8 7 6 6 7 7 6 6 6 5 6 7 8 9 9 9
13 13 13 13 13 12 12 12 11 11 11 11 11 11 11 11 11 11 10 10 10 10 9 9 10 10 10 8 8 7 6 7 7 7 7 7 6 8 7 8 8 9 9
14 14 13 13 13 13 12 12 12 12 12 12 11 11 11 11 11 12 11 11 11 11 10 10 10 10 10 9 8 8 7 8 8 7 6 6 6 6 8 9 9 8 9
14 14 14 13 13 13 12 12 12 12 12 12 12 12 12 12 12 12 11 11 11 11 10 10 10 10 10 10 9 9 8 8 7 7 6 6 6 7 7 6 8 8 8
12 14 14 14 13 13 13 13 13 12 12 12 12 12 12 13 12 12 12 11 11 11 11 10 10 10 10 10 11 10 9 8 7 7 7 7 7 7 7 7 7 7 8
Height
3163 3167 3171 3172 3177 3179 3181 3183 3184 3185 3187 3188 3190 3191 3192 3193 3193 3194 3195 3195 3196 3197 3198 3199 3199 3198 3198 3197 3197 3196 3196 3195 3195 3196 3198 3200 3202 3204 3206 3208 3209 3210 3211
3166 3169 3173 3175 3179 3181 3183 3184 3186 3188 3189 3191 3192 3193 3194 3195 3195 3195 3196 3197 3197 3199 3200 3200 3200 3200 3199 3199 3199 3198 3197 3197 3197 3197 3198 3199 3202 3204 3207 3208 3209 3210 3211
3169 3172 3176 3178 3181 3183 3185 3186 3188 3189 3191 3193 3194 3195 3196 3196 3196 3197 3198 3199 3200 3200 3201 3202 3202 3202 3202 3201 3201 3200 3200 3199 3199 3199 3199 3200 3202 3205 3208 3209 3210 3211 3212
3170 3174 3178 3180 3183 3185 3187 3188 3189 3192 3193 3195 3196 3197 3198 3198 3199 3199 3200 3200 3201 3202 3203 3203 3203 3204 3203 3203 3203 3201 3201 3201 3201 3201 3200 3200 3203 3206 3209 3210 3212 3213 3213
3171 3175 3180 3182 3185 3187 3189 3190 3192 3194 3196 3198 3199 3199 3200 3201 3201 3202 3202 3202 3203 3203 3204 3205 3205 3205 3205 3205 3204 3203 3203 3203 3203 3203 3203 3203 3205 3208 3210 3212 3213 3213 3214
3173 3176 3181 3184 3186 3189 3190 3193 3195 3197 3199 3200 3201 3201 3202 3203 3203 3204 3205 3206 3206 3207 3208 3208 3207 3207 3207 3206 3206 3205 3205 3206 3205 3204 3206 3208 3208 3210 3212 3213 3214 3215 3215
3176 3178 3183 3186 3188 3190 3193 3195 3197 3199 3201 3202 3203 3203 3205 3205 3206 3207 3208 3208 3208 3209 3209 3209 3209 3209 3208 3208 3207 3207 3207 3207 3207 3208 3210 3210 3211 3213 3214 3214 3215 3216 3217
3178 3180 3184 3187 3189 3192 3195 3198 3199 3201 3202 3203 3205 3206 3207 3208 3210 3211 3211 3211 3211 3211 3211 3211 3210 3210 3210 3209 3209 3208 3209 3209 3208 3210 3212 3213 3214 3215 3215 3216 3217 3218 3219
3180 3183 3186 3188 3191 3194 3197 3200 3201 3202 3204 3205 3207 3209 3210 3211 3213 3214 3214 3213 3213 3212 3212 3212 3211 3211 3211 3211 3211 3211 3211 3211 3211 3213 3215 3216 3216 3217 3217 3217 3218 3219 3220
3182 3185 3188 3190 3192 3195 3199 3201 3202 3204 3206 3207 3209 3211 3211 3213 3213 3216 3217 3216 3215 3214 3213 3212 3213 3212 3212 3213 3213 3214 3214 3213 3212 3214 3216 3217 3218 3219 3219 3219 3220 3221 3222
3182 3186 3189 3191 3194 3197 3201 3202 3204 3205 3208 3210 3211 3210 3210 3214 3215 3215 3219 3218 3217 3215 3213 3214 3213 3214 3214 3214 3216 3217 3216 3215 3215 3217 3217 3219 3219 3220 3220 3221 3221 3222 3223
3182 3186 3189 3192 3195 3198 3201 3203 3205 3207 3210 3210 3208 3209 3215 3212 3214 3215 3218 3219 3218 3216 3216 3216 3217 3215 3215 3215 3217 3219 3219 3216 3215 3219 3219 3219 3221 3221 3222 3223 3223 3224 3224
3184 3187 3189 3193 3196 3199 3202 3204 3206 3208 3211 3211 3210 3223 3198 3214 3213 3216 3220 3219 3218 3215 3218 3217 3217 3218 3217 3216 3219 3222 3222 3219 3217 3220 3220 3221 3222 3222 3223 3224 3225 3225 3226
3186 3188 3190 3193 3196 3199 3202 3205 3207 3208 3210 3212 3208 3219 3219 3214 3214 3219 3222 3220 3219 3217 3218 3218 3218 3219 3219 3221 3221 3222 3223 3220 3219 3220 3220 3221 3223 3224 3225 3226 3226 3227 3227
3188 3191 3190 3192 3196 3199 3201 3205 3207 3211 3213 3214 3213 3213 3214 3215 3217 3219 3220 3220 3220 3218 3218 3218 3219 3219 3220 3221 3222 3222 3223 3222 3219 3222 3220 3222 3224 3225 3226 3227 3227 3227 3228
3187 3191 3190 3191 3196 3199 3202 3204 3207 3210 3214 3216 3216 3216 3217 3218 3218 3221 3221 3221 3220 3220 3220 3220 3221 3219 3220 3220 3222 3222 3221 3221 3219 3222 3221 3222 3224 3225 3226 3227 3228 3228 3228
3185 3189 3188 3191 3195 3199 3202 3205 3207 3209 3212 3215 3217 3217 3218 3219 3221 3222 3222 3220 3221 3220 3221 3221 3222 3221 3221 3221 3222 3222 3222 3222 3221 3220 3223 3223 3224 3225 3226 3227 3227 3228 3228
3184 3186 3187 3190 3193 3197 3201 3204 3207 3210 3212 3214 3216 3218 3219 3221 3223 3223 3222 3220 3221 3220 3222 3222 3221 3222 3221 3222 3223 3222 3222 3221 3221 3220 3221 3223 3225 3225 3226 3226 3226 3227 3227
3183 3184 3186 3189 3192 3197 3200 3203 3206 3208 3211 3213 3215 3216 3218 3220 3221 3220 3220 3220 3221 3221 3221 3223 3223 3223 3222 3223 3224 3223 3224 3223 3224 3225 3223 3224 3224 3224 3225 3224 3226 3226 3226
3180 3181 3185 3188 3190 3195 3198 3201 3204 3207 3209 3212 3213 3214 3216 3217 3218 3219 3220 3220 3221 3222 3222 3222 3223 3223 3223 3224 3223 3224 3224 3225 3225 3227 3226 3226 3221 3224 3224 3224 3225 3226 3225
3176 3179 3183 3186 3189 3192 3196 3200 3203 3205 3207 3210 3211 3212 3214 3216 3217 3218 3220 3221 3221 3222 3223 3223 3222 3221 3221 3223 3225 3226 3226 3226 3227 3227 3227 3226 3224 3224 3223 3223 3224 3223 3223
3172 3176 3181 3184 3187 3191 3195 3199 3201 3204 3206 3208 3210 3211 3213 3215 3217 3218 3220 3222 3222 3223 3223 3224 3222 3221 3222 3224 3223 3226 3226 3229 3229 3230 3230 3229 3227 3224 3224 3222 3223 3222 3223
3167 3172 3177 3182 3185 3189 3193 3196 3199 3202 3204 3206 3209 3210 3213 3214 3216 3218 3218 3221 3222 3223 3225 3225 3225 3224 3223 3225 3224 3226 3226 3229 3230 3230 3230 3229 3229 3227 3226 3224 3222 3224 3224
3165 3169 3174 3179 3182 3186 3190 3193 3197 3200 3203 3206 3208 3209 3212 3214 3216 3216 3218 3220 3222 3223 3225 3226 3226 3226 3226 3226 3227 3226 3227 3228 3229 3231 3230 3231 3230 3228 3227 3225 3225 3224 3223
3162 3165 3170 3176 3179 3183 3187 3190 3194 3198 3202 3204 3205 3208 3210 3213 3214 3216 3218 3220 3221 3222 3224 3225 3227 3227 3227 3228 3227 3228 3229 3228 3230 3231 3232 3231 3230 3228 3227 3226 3224 3225 3223
3159 3161 3165 3171 3175 3179 3183 3187 3191 3195 3198 3201 3203 3206 3208 3210 3213 3214 3216 3217 3219 3221 3223 3225 3227 3228 3228 3229 3229 3229 3230 3231 3231 3231 3231 3231 3230 3229 3227 3226 3226 3224 3223
Wind_Speed
29 34 33 32 30 27 24 20 18 17 17 17 15 14 14 13 12 11 11 10 9 8 7 8 8 9 9 8 7 8 7 7 6 5 6 6 6 8 6 4 5 4 4
26 34 31 32 29 25 21 19 17 17 18 16 14 14 14 13 12 12 12 12 12 10 10 9 8 9 11 11 10 10 10 10 10 8 9 9 7 9 8 6 5 4 5
29 32 30 30 27 23 20 18 17 18 18 15 14 14 14 13 13 12 12 12 12 11 10 9 8 9 11 12 13 12 11 12 12 13 9 13 12 11 11 8 5 5 5
32 30 29 28 25 22 19 17 18 18 16 15 14 14 14 14 13 14 14 13 13 12 11 11 10 8 9 11 13 13 11 11 12 10 12 15 14 14 13 8 7 5 5
33 33 31 28 24 20 18 18 18 17 15 14 13 14 15 14 14 13 13 13 14 13 13 12 10 10 8 10 10 9 9 8 10 12 10 13 15 13 11 8 7 6 4
36 36 30 27 23 20 19 19 18 17 15 14 14 14 14 12 12 12 13 13 13 12 11 10 10 9 8 8 10 8 6 7 13 11 10 13 16 13 12 9 7 7 7
34 34 29 26 22 20 20 19 18 16 15 15 15 15 14 12 11 12 12 11 11 11 10 10 11 10 9 9 8 7 6 8 13 10 13 13 11 10 8 9 9 8 7
31 31 29 25 22 20 19 18 17 15 15 16 15 14 13 12 11 11 11 10 10 10 11 11 11 12 10 10 9 9 9 5 11 10 11 10 10 8 7 7 7 7 6
31 29 27 24 22 21 19 17 17 15 15 15 14 13 13 12 11 10 9 9 10 11 13 15 15 17 14 12 12 11 12 10 10 7 9 7 6 6 6 7 6 6 6
28 27 24 22 21 20 18 17 16 15 15 14 12 12 12 11 12 9 7 9 11 12 12 12 14 18 25 19 14 10 8 6 8 5 7 6 4 5 5 6 6 6 6
23 26 23 21 21 20 18 16 15 14 14 11 9 10 12 10 11 13 8 9 11 9 10 14 17 17 22 20 17 12 7 7 6 6 5 4 4 4 4 5 6 6 6
20 25 23 21 20 19 17 16 14 13 12 8 9 18 15 17 14 13 9 7 8 8 13 12 15 12 11 19 17 18 9 7 5 5 4 3 3 3 3 3 4 4 4
20 26 23 22 21 19 18 15 13 12 11 10 8 14 5 13 11 8 8 8 9 5 7 9 9 9 9 15 9 11 10 11 9 7 1 2 2 2 2 2 3 4 3
17 15 17 22 21 20 19 15 13 10 8 8 0 5 10 4 11 4 6 7 6 8 7 8 9 9 5 11 4 9 3 2 4 10 4 1 2 3 3 2 2 3 3
23 21 18 21 21 20 19 16 12 6 7 0 5 2 3 7 6 3 6 4 6 5 5 10 9 6 6 2 5 6 5 10 10 4 1 3 1 2 3 3 3 2 2
27 25 26 21 23 20 17 19 19 13 6 12 7 5 3 5 3 3 7 4 9 9 3 5 6 7 4 5 2 5 2 5 12 2 4 2 2 2 1 1 1 1 2
31 28 29 21 22 20 17 14 10 14 11 8 9 5 2 1 3 3 3 3 6 6 3 3 6 9 7 10 6 11 7 3 5 4 5 5 3 2 1 1 1 2 3
20 28 26 22 22 21 18 16 14 11 10 7 6 4 4 4 3 2 1 4 4 6 4 3 5 5 8 14 10 3 6 6 12 4 4 6 2 1 4 4 2 3 4
28 27 24 22 21 20 19 17 15 13 9 8 7 5 5 5 5 5 3 3 6 3 5 7 6 4 6 9 8 9 7 10 8 9 7 5 4 2 2 3 5 5 6
32 28 24 22 21 21 20 19 17 14 11 9 8 9 4 5 4 4 3 1 5 6 6 6 6 5 1 6 5 4 4 4 6 13 9 4 12 7 1 5 4 6 6
31 25 25 25 24 23 22 19 17 15 13 11 10 10 5 6 5 5 5 4 5 4 5 7 10 5 6 6 5 0 7 6 11 13 6 6 11 8 7 10 9 4 6
26 23 25 27 26 23 21 19 18 16 14 12 11 11 8 7 6 7 6 5 5 3 5 8 7 5 8 4 13 9 10 12 8 7 6 9 1 7 5 8 8 7 8
27 22 24 27 27 24 23 22 21 20 17 14 13 12 10 9 8 9 10 8 5 4 1 3 4 3 8 6 6 11 9 1 1 6 6 8 6 7 6 8 9 10 10
23 21 22 27 28 26 26 25 23 20 17 14 13 14 11 10 9 10 10 10 6 6 2 2 2 2 7 9 7 8 11 5 0 2 5 10 13 12 9 12 10 9 10
18 18 20 25 28 28 29 26 23 21 19 18 16 14 13 12 12 11 11 11 9 8 6 3 3 4 8 9 12 10 7 5 5 3 2 9 9 13 12 7 12 9 8
22 21 22 25 29 30 30 28 24 22 21 20 17 16 15 13 13 13 11 12 12 10 9 6 8 7 8 7 8 11 7 6 4 2 3 8 12 12 12 14 9 9 9
Wind_Direction
144 141 141 136 136 133 129 127 124 124 125 120 117 105 97 92 90 91 97 99 102 108 101 85 74 61 56 59 55 59 64 73 95 129 149 162 168 166 154 153 135 99 67
146 144 144 139 137 135 131 128 127 130 126 123 114 103 96 94 91 92 94 94 93 93 94 89 78 65 64 57 64 68 65 82 93 108 140 134 139 149 153 138 136 108 74
149 148 146 144 138 136 133 128 131 128 124 122 113 104 96 93 94 95 92 92 91 92 91 89 84 73 65 62 68 65 66 74 91 98 129 133 130 143 144 132 110 95 82
150 152 151 146 142 137 133 133 133 128 123 120 111 102 98 95 95 91 90 91 90 86 85 84 83 76 62 56 61 63 66 84 73 72 111 116 123 136 136 146 127 111 108
150 153 150 146 143 139 135 135 131 128 120 113 110 105 102 100 96 94 94 92 87 86 83 81 74 65 59 41 47 58 57 79 92 73 93 107 120 131 138 138 137 128 116
152 149 150 148 145 138 135 131 127 120 115 116 113 109 103 102 98 96 91 87 83 80 75 65 57 50 43 39 42 51 56 76 91 69 80 104 115 121 126 126 123 116 111
155 147 153 149 145 138 134 129 124 118 120 118 112 106 105 101 96 91 86 80 74 65 57 55 49 43 42 44 48 57 84 95 81 102 102 106 111 121 124 118 115 109 111
154 151 153 151 146 141 135 131 124 121 118 112 106 101 98 96 95 90 87 79 77 68 61 55 41 35 38 44 45 60 88 89 115 115 107 108 107 108 112 117 120 118 112
157 156 155 153 148 143 139 134 126 121 117 110 108 105 102 98 94 92 90 82 78 69 57 49 51 45 42 59 52 73 82 97 96 119 115 101 95 101 112 111 112 116 112
163 158 159 154 152 146 145 138 127 120 118 113 116 116 113 112 108 96 88 81 69 62 60 56 58 64 58 60 64 78 77 84 106 92 121 116 107 99 103 102 103 100 99
167 164 164 161 159 152 150 139 129 125 117 116 123 123 116 107 106 98 95 76 70 70 67 66 74 69 60 53 48 38 65 57 67 61 101 111 112 110 102 108 112 109 102
170 173 173 169 165 158 155 144 138 130 122 126 124 142 124 109 105 91 97 90 79 68 58 66 40 61 58 54 35 12 31 20 41 47 68 80 95 102 98 106 119 117 109
176 183 180 177 170 168 158 152 149 137 139 145 109 97 188 115 76 76 82 84 86 59 51 43 31 55 38 83 42 38 50 27 329 8 355 74 83 94 108 123 119 119 124
171 182 195 181 176 180 163 164 162 148 135 118 181 68 76 164 112 127 102 79 77 24 54 22 23 49 68 154 164 112 340 276 247 301 312 143 80 53 50 63 75 90 105
174 183 212 186 185 188 177 177 159 152 155 117 135 85 92 100 119 89 81 83 79 306 69 22 16 9 20 220 88 132 152 217 243 322 316 164 136 62 43 46 67 79 68
177 189 209 195 188 195 185 176 166 197 185 176 281 145 113 134 186 103 108 351 53 346 40 345 27 28 57 1 287 132 53 148 231 130 37 117 182 189 184 65 38 60 69
180 197 211 197 188 192 195 188 181 172 174 195 192 135 155 222 149 218 70 355 55 18 19 20 34 37 343 14 79 42 9 162 210 59 40 332 267 203 249 212 255 303 332
208 203 213 204 193 193 196 192 196 197 191 192 219 181 204 217 192 170 107 49 348 25 63 334 55 30 17 52 44 75 329 6 157 234 351 17 47 298 295 262 255 266 275
212 216 213 204 197 196 198 200 202 205 207 209 233 249 235 227 209 194 219 97 342 5 37 33 51 90 31 48 9 22 53 71 90 41 337 285 346 154 227 298 278 269 278
216 217 211 209 208 198 204 205 207 209 212 227 234 256 234 237 205 218 237 1 313 343 36 7 342 353 336 166 146 179 308 105 71 65 31 1 338 35 312 2 319 253 281
219 218 209 210 214 205 207 209 212 214 216 226 238 252 240 245 226 228 244 237 309 358 3 349 327 327 51 142 159 125 41 136 114 67 26 6 328 311 297 308 329 321 276
224 222 213 212 213 211 210 212 220 224 227 227 239 248 253 242 230 230 234 261 282 345 339 10 33 103 84 52 93 51 29 61 96 149 247 254 278 325 351 327 8 336 329
225 224 219 216 214 212 213 214 219 224 227 229 235 245 241 242 239 230 235 244 283 295 320 44 63 60 92 103 90 146 209 294 357 12 12 39 337 6 16 346 11 14 3
229 227 221 218 217 213 217 217 221 226 228 233 233 240 240 241 236 241 238 241 249 277 230 163 110 78 109 114 118 148 166 189 138 308 11 26 13 2 355 3 31 6 16
226 223 222 220 218 216 218 219 221 224 226 226 231 237 241 229 233 239 238 244 250 248 220 202 166 148 123 129 122 126 148 173 208 168 178 7 5 17 21 339 337 13 352
221 224 216 217 218 218 217 221 221 221 221 225 226 232 235 239 233 244 245 246 239 240 216 206 176 153 136 118 106 111 119 129 115 94 9 352 348 12 1 5 353 348 348